Aurora, OR

8:30 AM PST on December 11, 2017 (GMT -0800)
Aurora State

Weather History for KUAO - September, 2013

Change the Weather History Date:

Friday, September 20, 2013

  Actual Average Record
Temperature  
Mean Temperature 60 °F -  
Max Temperature 75 °F - 95 °F (2014)
Min Temperature 48 °F - 44 °F (2001)
Degree Days  
Heating Degree Days 3    
Month to date heating degree days 17  
Since 1 July heating degree days 27  
Cooling Degree Days 0    
Month to date cooling degree days 64  
Year to date cooling degree days 426  
Growing Degree Days 10 (Base 50)    
Moisture  
Dew Point 52 °F    
Average Humidity 77    
Maximum Humidity 100    
Minimum Humidity 53    
Precipitation  
Precipitation 0.02 in - 0.39 in (1968)
Month to date precipitation 2.53  
Year to date precipitation 16.11  
Sea Level Pressure  
Sea Level Pressure 29.71 in    
Wind  
Wind Speed 4 mph (SSW)    
Max Wind Speed 18 mph    
Max Gust Speed 24 mph    
Visibility 10 miles    
Events Rain    
T = Trace of Precipitation, MM = Missing Value Source: NWS Daily Summary

Daily Weather History Graph

Daily Weather History Graph

Search for Another Location

Airport or City:

Trip Planner

Search our weather history database for the weather conditions in past years. The results will help you decide how hot, cold, wet, or windy it might be!

Date:

Astronomy

Sep. 20, 2013 Rise Set
Actual Time 6:56 AM PDT 7:11 PM PDT
Civil Twilight 6:26 AM PDT 7:41 PM PDT
Nautical Twilight 5:51 AM PDT 8:15 PM PDT
Astronomical Twilight 5:16 AM PDT 8:51 PM PDT
Moon 7:41 PM PDT (9/20) 8:22 AM PDT (9/20)
Length of Visible Light 13h 14m
Length of Day
12h 15m
Full, 98% of the Moon is Illuminated
Sep 20
Full
Sep 26
Last Quarter
Oct 4
New
Oct 11
First Quarter
Oct 18
Full

Hourly Weather History & Observations

Time (PDT) Temp. Dew Point Humidity Pressure Visibility Wind Dir Wind Speed Gust Speed Precip Events Conditions
12:53 AM 54.0 °F 51.1 °F 90% 29.78 in 10.0 mi Calm Calm - N/A   Clear
1:53 AM 52.0 °F 50.0 °F 93% 29.78 in 10.0 mi Calm Calm - N/A   Clear
2:53 AM 51.1 °F 48.9 °F 92% 29.76 in 10.0 mi Calm Calm - N/A   Clear
3:53 AM 51.1 °F 50.0 °F 96% 29.76 in 10.0 mi Calm Calm - N/A   Clear
4:53 AM 48.9 °F 48.9 °F 100% 29.75 in 10.0 mi Calm Calm - N/A   Clear
5:53 AM 48.9 °F 48.0 °F 97% 29.73 in 10.0 mi Calm Calm - N/A   Clear
6:53 AM 48.9 °F 48.0 °F 97% 29.73 in 10.0 mi Calm Calm - 0.01 in   Clear
7:53 AM 51.1 °F 48.9 °F 92% 29.72 in 10.0 mi Calm Calm - N/A   Clear
8:53 AM 55.0 °F 50.0 °F 83% 29.72 in 10.0 mi Calm Calm - N/A   Clear
9:53 AM 57.9 °F 52.0 °F 81% 29.70 in 10.0 mi Calm Calm - N/A   Clear
10:53 AM 62.1 °F 51.1 °F 67% 29.69 in 10.0 mi SW 4.6 mph - N/A   Clear
11:53 AM 64.9 °F 52.0 °F 63% 29.70 in 10.0 mi SSW 6.9 mph - N/A   Clear
12:53 PM 70.0 °F 53.1 °F 55% 29.68 in 10.0 mi SW 5.8 mph - N/A   Clear
1:53 PM 73.9 °F 55.0 °F 52% 29.67 in 10.0 mi South 18.4 mph 23.0 mph N/A   Mostly Cloudy
2:53 PM 66.9 °F 55.9 °F 68% 29.68 in 10.0 mi SW 4.6 mph - N/A   Overcast
3:53 PM 69.1 °F 52.0 °F 54% 29.70 in 10.0 mi SW 6.9 mph - N/A   Mostly Cloudy
4:53 PM 64.9 °F 55.0 °F 70% 29.71 in 10.0 mi SSW 4.6 mph - 0.00 in Rain Light Rain
5:53 PM 62.1 °F 55.0 °F 78% 29.69 in 10.0 mi South 12.7 mph 16.1 mph 0.00 in Rain Light Rain
6:53 PM 61.0 °F 55.0 °F 81% 29.68 in 10.0 mi South 8.1 mph - 0.01 in   Partly Cloudy
7:53 PM 60.1 °F 55.0 °F 83% 29.69 in 10.0 mi WSW 4.6 mph - N/A   Mostly Cloudy
8:53 PM 60.1 °F 55.0 °F 83% 29.69 in 10.0 mi Calm Calm - N/A   Overcast
9:53 PM 60.1 °F 55.0 °F 83% 29.70 in 10.0 mi SSW 5.8 mph - N/A   Overcast
10:36 PM 60.8 °F 55.4 °F 82% 29.70 in 10.0 mi SSW 4.6 mph - N/A   Overcast
10:53 PM 59.0 °F 55.0 °F 87% 29.70 in 10.0 mi South 5.8 mph - N/A   Overcast
11:53 PM 59.0 °F 55.9 °F 90% 29.70 in 10.0 mi SSW 4.6 mph - N/A   Overcast